Big Piney, WY

1:48 PM MDT on May 26, 2017 (GMT -0600)
Big Piney-Marbleton

Weather History for KBPI - March, 2014

Change the Weather History Date:

Sunday, March 2, 2014

  Actual Average Record
Temperature  
Mean Temperature 27 °F 21 °F  
Max Temperature 39 °F 35 °F 56 °F (1994)
Min Temperature 14 °F 7 °F -19 °F (2002)
Degree Days  
Heating Degree Days 38 44  
Month to date heating degree days 73 89  
Since 1 July heating degree days 7017 7612  
Cooling Degree Days 0 0  
Month to date cooling degree days 0 0  
Year to date cooling degree days 0 0  
Moisture  
Dew Point 20 °F    
Average Humidity 76    
Maximum Humidity 92    
Minimum Humidity 59    
Precipitation  
Precipitation 0.00 in 0.01 in 0.05 in (1997)
Month to date precipitation 0.06 0.02  
Year to date precipitation 0.10 0.68  
Sea Level Pressure  
Sea Level Pressure 29.96 in    
Wind  
Wind Speed 7 mph (NNE)    
Max Wind Speed 21 mph    
Max Gust Speed 24 mph    
Visibility 7 miles    
Events Fog    
T = Trace of Precipitation, MM = Missing Value Source: NWS Daily Summary

Daily Weather History Graph

Daily Weather History Graph

Search for Another Location

Airport or City:

Trip Planner

Search our weather history database for the weather conditions in past years. The results will help you decide how hot, cold, wet, or windy it might be!

Date:

Astronomy

Mar. 02, 2014 Rise Set
Actual Time 6:54 AM MST 6:11 PM MST
Civil Twilight 6:26 AM MST 6:39 PM MST
Nautical Twilight 5:53 AM MST 7:12 PM MST
Astronomical Twilight 5:20 AM MST 7:45 PM MST
Moon 7:24 AM MST (3/2) 8:14 PM MST (3/2)
Length of Visible Light 12h 13m
Length of Day
11h 17m
Waxing Crescent, 3% of the Moon is Illuminated
Mar 2
Waxing Crescent
Mar 8
First Quarter
Mar 16
Full
Mar 23
Last Quarter
Mar 30
New

Hourly Weather History & Observations

Time (MST) Temp. Windchill Dew Point Humidity Pressure Visibility Wind Dir Wind Speed Gust Speed Precip Events Conditions
12:53 AM 28.0 °F 17.5 °F 23.0 °F 81% 29.75 in 10.0 mi West 12.7 mph - N/A   Clear
1:53 AM 27.0 °F 16.1 °F 21.9 °F 81% 29.78 in 10.0 mi NW 12.7 mph - N/A   Clear
2:53 AM 23.0 °F 12.4 °F 19.9 °F 88% 29.82 in 10.0 mi North 10.4 mph - N/A   Clear
3:53 AM 19.9 °F 13.4 °F 17.1 °F 89% 29.86 in 10.0 mi ESE 4.6 mph - N/A   Partly Cloudy
4:53 AM 19.0 °F - 16.0 °F 88% 29.88 in 10.0 mi Calm Calm - N/A   Clear
5:43 AM 16.0 °F 10.4 °F 12.9 °F 88% 29.88 in 10.0 mi SW 3.5 mph - N/A   Partly Cloudy
5:53 AM 16.0 °F - 14.0 °F 92% 29.94 in 10.0 mi Calm Calm - N/A   Partly Cloudy
6:53 AM 14.0 °F - 10.9 °F 88% 29.97 in 0.8 mi Calm Calm - N/A   Mist
7:16 AM 17.1 °F 8.7 °F 15.1 °F 92% 29.91 in 1.2 mi North 5.8 mph - N/A   Partly Cloudy
7:24 AM 18.0 °F 11.1 °F 16.0 °F 92% 29.92 in 3.0 mi NNW 4.6 mph - N/A   Partly Cloudy
7:44 AM 16.0 °F 7.4 °F 12.9 °F 88% 29.93 in 1.5 mi East 5.8 mph - N/A   Scattered Clouds
7:49 AM 14.0 °F 6.5 °F 12.2 °F 93% 29.93 in 0.5 mi East 4.6 mph - N/A Fog Light Freezing Fog
7:53 AM 15.1 °F 6.4 °F 12.9 °F 91% 30.03 in 0.2 mi East 5.8 mph - N/A Fog Light Freezing Fog
8:16 AM 19.0 °F 13.9 °F 17.1 °F 92% 29.95 in 2.5 mi North 3.5 mph - N/A   Overcast
8:23 AM 19.0 °F 8.2 °F 17.1 °F 92% 29.95 in 4.0 mi East 9.2 mph - N/A   Mostly Cloudy
8:25 AM 18.0 °F 7.7 °F 15.1 °F 88% 29.95 in 0.8 mi East 8.1 mph - N/A   Mostly Cloudy
8:37 AM 16.0 °F 6.3 °F 15.1 °F 96% 29.95 in 0.2 mi East 6.9 mph - N/A Fog Light Freezing Fog
8:53 AM 19.0 °F 12.3 °F 16.0 °F 88% 30.03 in 0.2 mi East 4.6 mph - N/A Fog Light Freezing Fog
9:17 AM 21.0 °F - 19.0 °F 92% 29.97 in 1.0 mi Calm Calm - N/A   Overcast
9:22 AM 21.9 °F - 19.9 °F 92% 29.97 in 3.0 mi Calm Calm - N/A   Overcast
9:53 AM 23.0 °F 14.7 °F 19.9 °F 88% 30.03 in 10.0 mi East 6.9 mph - N/A   Overcast
10:05 AM 21.9 °F 13.4 °F 19.9 °F 92% 29.97 in 5.0 mi East 6.9 mph - N/A   Overcast
10:53 AM 26.1 °F 19.4 °F 21.9 °F 84% 30.02 in 10.0 mi East 5.8 mph - N/A   Scattered Clouds
11:53 AM 30.9 °F 24.3 °F 25.0 °F 79% 30.00 in 10.0 mi East 6.9 mph - N/A   Partly Cloudy
12:53 PM 34.0 °F 26.6 °F 27.0 °F 75% 29.96 in 10.0 mi East 9.2 mph - N/A   Mostly Cloudy
1:53 PM 36.0 °F 33.3 °F 26.1 °F 67% 29.94 in 10.0 mi Variable 3.5 mph - N/A   Scattered Clouds
2:53 PM 37.0 °F 29.8 °F 28.9 °F 73% 29.97 in 10.0 mi WNW 10.4 mph - N/A   Overcast
3:53 PM 37.0 °F 31.6 °F 27.0 °F 67% 29.98 in 10.0 mi West 6.9 mph - N/A   Clear
4:53 PM 37.9 °F 32.1 °F 25.0 °F 60% 29.99 in 10.0 mi West 8.1 mph - N/A   Clear
5:53 PM 33.1 °F 23.4 °F 26.1 °F 75% 30.04 in 10.0 mi West 13.8 mph - N/A   Scattered Clouds
6:53 PM 34.0 °F 24.6 °F 24.1 °F 67% 30.07 in 10.0 mi West 13.8 mph - N/A   Clear
7:53 PM 34.0 °F 27.2 °F 25.0 °F 70% 30.07 in 10.0 mi West 8.1 mph - N/A   Overcast
8:53 PM 32.0 °F 24.2 °F 25.0 °F 75% 30.06 in 10.0 mi WSW 9.2 mph - N/A   Mostly Cloudy
9:53 PM 30.0 °F 22.4 °F 23.0 °F 75% 30.05 in 10.0 mi WSW 8.1 mph - N/A   Clear
10:53 PM 30.9 °F 22.8 °F 24.1 °F 76% 30.02 in 10.0 mi WSW 9.2 mph - N/A   Clear
11:53 PM 30.9 °F - 24.1 °F 76% 29.99 in 10.0 mi Calm Calm - N/A   Scattered Clouds